Regional Weather Roundup
Issued by NWS Newport/Morehead, NC

Current Version | Previous Version | Graphics & Text | Print | Product List | Glossary On
Versions: 1 2 3 4 5 6 7 8 9 10 11 12 13 14 15 16 17 18 19 20 21 22 23 24 25 26 27 28 29 30 31 32 33 34 35 36 37 38 39 40 41 42 43 44 45 46 47 48 49 50
000 ASUS42 KMHX 082212 RWRMHX WEATHER ROUNDUP FOR EASTERN NORTH CAROLINA NATIONAL WEATHER SERVICE NEWPORT/MOREHEAD CITY NC 500 PM EST THU DEC 08 2016 NOTE: "FAIR" INDICATES FEW OR NO CLOUDS BELOW 12,000 FEET WITH NO SIGNIFICANT WEATHER AND/OR OBSTRUCTIONS TO VISIBILITY NCZ015>017-031-032-045>047-102-103-082300- NORTH COAST CITY SKY/WX TMP DP RH WIND PRES REMARKS EDENTON MOCLDY 51 38 60 NW9 30.08R ELIZABETH CITY PTCLDY 47 38 71 W8 30.07R KITTY HAWK CLOUDY 50 43 78 NW7 30.04R MANTEO CLOUDY 50 40 68 NW12 30.05R $$ NCZ045>047-081-094-103-104-082300- CENTRAL COAST CITY SKY/WX TMP DP RH WIND PRES REMARKS FRISCO PTCLDY 53 44 71 NW10G21 30.05 $$ NCZ095-097-098-100-101-082300- SOUTHERN COAST CITY SKY/WX TMP DP RH WIND PRES REMARKS BEAUFORT CLEAR 53 36 52 NW14 30.08R CEDAR ISLAND NOT AVBL JACKSONVILLE PTCLDY 52 27 38 N12 30.10R PINEY ISLAND PTCLDY N/A N/A N/A NW15 30.08R WILMINGTON PTCLDY 52 39 61 N10 30.10R $$ NCZ011>013-027>030-043-044-078>080-089-090>093-098-082300- COASTAL PLAIN CITY SKY/WX TMP DP RH WIND PRES REMARKS AHOSKIE PTCLDY 46 29 50 CALM 30.09R CLINTON CLOUDY 51 32 48 NW6 30.13R ELIZABETHTOWN PTCLDY 53 35 51 NW8 30.13R GOLDSBORO MOCLDY 50 22 33 NW8 30.11R GREENVILLE CLOUDY 50 27 40 CALM 30.12R HAVELOCK PTCLDY 52 31 44 NW7 30.10R KENANSVILLE CLOUDY 50 27 40 NW8 30.13R KINSTON CLOUDY 50 27 40 NW7 30.13R NEW BERN MOCLDY 51 29 42 NW10 30.11R RICHLANDS PTCLDY 50 32 50 N3 30.11R ROCKY MOUNT CLOUDY 48 24 39 W7 30.12R WASHINGTON CLOUDY 49 27 43 NW8G16 30.11R WHITEVILLE MOCLDY 54 42 64 NW3 30.12R $$ AMZ130-135-150-152-154-156-158-170-250-252-270-ANZ085-086-088-633-658-670-082300- MARINE OBSERVATIONS STATION/POSITION TIME TEMP WIND PRES WAVE SWELL AIR SEA DIR/SP/G HT/PER HT/PER (UTC) (F) (DEG/KT/KT) (MB) (FT/S) (FT/S) CHESAPEAKE LIGHT NOT AVBL 64 E VA BEACH 2150 51 59 340/ 21/ 25 1015.5 4/ 8 2/ 8 DUCK 2148 50 53 320/ 13/ 17 1017.1 2 E DUCK NOT AVBL OREGON INLET 2142 51 55 300/ 14/ 19 1017.3 13E OREGON INLT NOT AVBL HATTERAS CG 2148 54 60 310/ 20/ 22 1017.0 DIAMOND BUOY 2150 57 77 310/ 19/ 23 1016.5 5/10 3/10 CAPE LOOKOUT 2200 54 330/ 17/ 20 1018.1 BEAUFORT LAB 2148 54 55 330/ 10/ 14 1017.5 30 SE NEW RVR IN 2108 55 70 340/ 17/ 21 1017.3 30 SE NEW RVR IN NOT AVBL 27 SE WRIGHTSVLE 2108 59 68 340/ 17/ 25 1016.8 5 SE WRIGHTSVLE 2108 54 61 350/ 12/ 19 1017.6 225 S CAPE HAT 2150 73 74 260/ 12/ 12 1016.5 5/ 9 3/ 9 41 SE CHARLESTON 2150 62 74 320/ 10/ 14 1018.7 2/ 4 2/ 8 $$

USA.gov is the U.S. government's official web portal to all federal, state and local government web resources and services.